This demonstration page uses our WeatherBlox Daily Observations layout. Learn more.

Left ArrowRight Arrow

Hourly Observations for July 5, 2015

Temp ( °F °C ) Dew Point ( °F °C ) Humidity (%) Winds ( mph kmh ) Pressure ( in mb ) Visibility ( mi km ) Precip ( " mm )
12:53 am 00:53 Clear 73 22.8 62 16.7 69 69 SSE 13 20 29.87 1012 10 16 0.00 0.00
1:53 am 01:53 Clear 73 22.8 63 17.2 71 71 S 9 15 29.86 1011 10 16 0.00 0.00
2:53 am 02:53 Clear 72 22.2 63 17.2 73 73 SSE 13 20 29.84 1011 10 16 0.00 0.00
3:53 am 03:53 Clear 71 21.7 63 17.2 76 76 SSE 10 17 29.83 1010 10 16 0.00 0.00
4:53 am 04:53 Clear 71 21.7 64 17.8 79 79 S 10 17 29.82 1010 10 16 0.00 0.00
5:53 am 05:53 Clear 71 21.7 64 17.8 79 79 SSE 12 19 29.81 1009 10 16 0.00 0.00
6:53 am 06:53 Sunny 71 21.7 65 18.3 81 81 S 10 17 29.80 1009 10 16 0.00 0.00
7:53 am 07:53 Sunny 71 21.7 66 18.9 84 84 S 9 15 29.83 1010 9 14 0.00 0.00
8:53 am 08:53 Sunny 74 23.3 67 19.4 79 79 SSE 12 19 29.82 1010 9 14 0.00 0.00
9:53 am 09:53 Sunny 76 24.4 69 20.6 79 79 SSE 12 19 29.83 1010 10 16 0.00 0.00
10:53 am 10:53 Sunny 83 28.3 70 21.1 65 65 SSE 10 17 29.83 1010 10 16 0.00 0.00
11:53 am 11:53 Sunny 84 28.9 71 21.7 65 65 SE 12 19 29.81 1009 10 16 0.00 0.00
12:53 pm 12:53 Sunny 86 30 71 21.7 61 61 SE 15 24 29.79 1009 10 16 0.00 0.00
1:53 pm 13:53 Sunny 91 32.8 71 21.7 52 52 S 16 26 29.76 1008 10 16 0.00 0.00
2:53 pm 14:53 Sunny 94 34.4 69 20.6 44 44 S 16 26 29.73 1007 10 16 0.00 0.00
3:53 pm 15:53 Sunny 96 35.6 68 20 40 40 S 15 24 29.71 1006 10 16 0.00 0.00
4:53 pm 16:53 Sunny 97 36.1 68 20 39 39 S 18 30 29.68 1005 10 16 0.00 0.00
5:53 pm 17:53 Sunny 96 35.6 68 20 40 40 S 15 24 29.67 1005 10 16 0.00 0.00
6:53 pm 18:53 Sunny 94 34.4 66 18.9 40 40 S 12 19 29.67 1005 10 16 0.00 0.00
7:53 pm 19:53 Sunny 92 33.3 64 17.8 40 40 S 12 19 29.67 1005 10 16 0.00 0.00
8:53 pm 20:53 Sunny 88 31.1 63 17.2 43 43 S 10 17 29.67 1005 10 16 0.00 0.00
9:53 pm 21:53 Clear 86 30 62 16.7 45 45 S 13 20 29.69 1005 10 16 0.00 0.00
10:53 pm 22:53 Clear 85 29.4 62 16.7 46 46 undefined N/A 29.70 1006 10 16 0.00 0.00
11:53 pm 23:53 Clear 85 29.4 62 16.7 46 46 S 9 15 29.70 1006 10 16 0.00 0.00

Powered by AerisWeather